Location: Chakepay
(13.3931°S, 72.1925°W)
Time: 07:39:54
(UTC+00:00)

Cosmos 2219 Rocket - Pass Details

Date: 15 November 2019
Orbit: 827 x 847 km, 71.0° (Epoch: 07 December)

Event Time Altitude Azimuth Distance (km) Brightness Sun altitude
Rises 00:26:31 0° 181° (S) 3,384 5.7 -21.4°
Reaches altitude 10° 00:29:13 10° 171° (S) 2,443 4.8 -22.0°
Enters shadow 00:33:37 32° 121° (ESE) 1,400 3.0 -23.0°
